#timestamp,LO_Frequency,Hit,StdDev 
1687633215.5,286047000.5,P
1687633235.3,286047004.4,P
1687633255.1,286047002.9,N
1687633275.9,286047004.1,N
1687633295.7,286047001.4,N
1687633315.5,286047002.7,N
1687633335.4,286047000.3,N
1687633355.2,286047000.2,N
1687633375.0,286047002.1,N
1687633375.9,286047002.1,N
1687633395.8,286046999.8,N
1687633415.6,286047002.0,N
1687633435.4,286047001.5,N
1687633455.3,286047002.1,N
1687633475.1,286047003.9,N
1687633476.0,286047003.9,N
1687633495.8,286047005.8,Y
1687633515.7,286046999.8,P
1687633535.5,286047000.0,N
1687633555.3,286046998.7,N
1687633575.2,286046998.3,N
1687633595.9,286047001.2,N
1687633615.7,286046998.6,N
1687633635.6,286046999.4,N
1687633655.4,286046998.6,N
1687633675.2,286047001.1,N
1687633695.1,286047000.4,N
1687633696.0,286047000.4,N
1687633715.8,286047000.9,N
1687633735.6,286047000.0,N
1687633755.5,286047000.4,N
1687633775.3,286047000.6,N
1687633795.1,286047000.0,N
1687633815.9,286047001.5,N
1687633835.7,286047001.8,N
1687633855.5,286047002.1,N
1687633875.4,286047000.1,N
1687633895.2,286047002.1,N
1687633915.0,286047002.2,N
1687633915.9,286047002.2,N
1687633935.8,286047004.1,Y
1687633955.6,286047001.7,P
1687633975.4,286047001.4,N
1687633995.3,286047001.3,N
1687634015.1,286047001.4,Y
1687634016.0,286047001.4,P
1687634035.8,286047002.7,P
1687634055.7,286046999.7,N
1687634075.5,286047002.5,N
1687634095.3,286047000.5,N
1687634115.2,286047000.8,N
1687634135.9,286047001.0,N
1687634155.7,286047000.5,N
1687634175.6,286047000.4,N
1687634195.4,286047000.4,N
1687634215.2,286047000.8,N
1687634235.1,286047000.7,N
1687634236.0,286047000.7,N
1687634255.8,286047000.6,N
1687634275.6,286047000.5,N
1687634295.5,286047002.4,Y
1687634315.3,286047010.4,P
1687634335.1,286047003.1,N
1687634355.9,286047000.6,N
1687634375.7,286047000.9,N
1687634395.5,286047002.9,N
1687634415.4,286047000.2,N
1687634435.2,286046998.2,N
1687634455.0,286046998.1,N
1687634455.9,286046998.1,N
1687634475.8,286047001.2,N
1687634495.6,286046998.9,N
1687634515.4,286046997.2,N
1687634535.3,286046996.5,N
1687634555.1,286046997.2,N
1687634575.8,286046997.5,N
1687634595.7,286046995.0,N
1687634615.5,286046997.7,N
1687634635.3,286046995.1,N
1687634655.2,286046996.3,N
1687634675.0,286046993.7,N
1687634675.9,286046993.7,N
1687634695.7,286046994.0,N
1687634715.6,286046991.7,N
1687634735.4,286046995.5,N
1687634755.2,286046993.3,N
1687634775.1,286046992.5,N
1687634776.0,286046992.5,N
1687634795.8,286046990.6,N
1687634815.6,286046992.3,N
1687634835.5,286046990.2,N
1687634855.3,286046993.0,N
1687634875.1,286046992.5,N
1687634895.9,286046992.9,N
1687634915.7,286046991.5,N
1687634935.5,286046988.8,Y
1687634955.4,286046994.6,P
1687634975.2,286046997.7,P
1687634995.0,286046993.9,P
1687634995.9,286046993.9,Y
1687635015.8,286046998.4,P
1687635035.6,286046997.7,N
1687635055.4,286046998.0,N
1687635075.3,286047002.3,N
1687635095.1,286046995.4,N
1687635115.8,286046997.4,N
1687635135.7,286046995.3,N
1687635155.5,286046997.9,N
1687635175.3,286046997.6,N
1687635195.2,286046995.1,N
1687635215.0,286046995.9,N
1687635215.9,286046995.9,N
1687635235.7,286046996.4,N
1687635255.6,286046996.1,N
1687635275.4,286046997.2,N
1687635295.2,286046996.2,N
1687635315.1,286047000.8,N
1687635316.0,286047000.8,N
1687635335.8,286046995.3,N
1687635355.6,286046995.5,N
1687635375.5,286046993.9,Y
1687635395.3,286046996.1,P
1687635415.1,286046994.9,P
1687635435.9,286046995.4,P
1687635455.7,286046996.2,Y
1687635475.5,286046999.8,P
1687635495.4,286047000.8,N
1687635515.2,286047002.2,N
1687635535.0,286046998.3,N
1687635536.0,286046998.3,N
1687635555.8,286047011.9,Y
1687635575.6,286046998.3,P
1687635595.5,286046996.5,P
1687635615.3,286046997.4,N
1687635635.1,286046995.6,Y
1687635655.9,286046996.6,P
1687635675.7,286046996.8,P
1687635695.5,286046997.8,P
1687635715.4,286046998.0,Y
1687635735.2,286046998.8,P
1687635755.0,286046998.9,N
1687635755.9,286046998.9,N
1687635775.8,286046997.1,Y
1687635795.6,286046999.7,P
1687635815.4,286047000.0,N
1687635835.3,286047000.3,N
1687635855.1,286047001.2,N
1687635856.0,286047001.2,N
1687635875.8,286046998.4,N
1687635895.7,286046997.3,N
1687635915.5,286046997.3,N
1687635935.3,286046999.2,N
1687635955.2,286046997.8,N
1687635975.9,286046997.0,N
1687635995.7,286046996.0,N
1687636015.6,286046993.9,Y
1687636035.4,286046995.6,P
1687636055.2,286046996.8,N
1687636075.1,286046995.8,P
1687636076.0,286046995.8,Y
1687636095.8,286046998.3,P
1687636115.6,286046999.3,N
1687636135.5,286046999.5,N
1687636155.3,286046997.3,N
1687636175.1,286047007.7,Y
1687636195.9,286047001.9,P
1687636215.7,286046998.2,N
1687636235.5,286046999.0,N
1687636255.4,286046999.4,N
1687636275.2,286046999.2,N
1687636295.0,286046997.9,N
1687636295.9,286046997.9,N
1687636315.8,286046995.7,Y
1687636335.6,286046997.9,P
1687636355.4,286046997.6,P
1687636375.3,286046996.7,P
1687636395.1,286046999.1,N
1687636396.0,286046999.1,N
1687636415.8,286046997.4,N
1687636435.7,286046999.3,N
1687636455.5,286046997.2,Y
1687636475.3,286046998.6,P
1687636495.2,286046998.2,P
1687636515.9,286046999.2,P
1687636535.7,286046999.6,N
1687636555.6,286046999.6,N
1687636575.4,286046997.8,Y
1687636595.2,286046996.5,P
1687636615.1,286046996.7,N
1687636616.0,286046996.7,P
1687636635.8,286046999.6,N
1687636655.6,286046999.2,N
1687636675.5,286046998.9,N
1687636695.3,286046998.4,N
1687636715.1,286046998.2,N
1687636735.9,286046998.3,N
1687636755.7,286046998.7,N
1687636775.5,286046998.3,N
1687636795.4,286047005.4,Y
